Peoria, IL

2:35 PM CST on February 14, 2016 (GMT -0600)
Greater Peoria Regional

Weather History for KPIA - July, 2013

Change the Weather History Date:

Monday, July 29, 2013

  Actual Average Record
Temperature  
Mean Temperature 65 °F 75 °F  
Max Temperature 78 °F 85 °F 104 °F (1887)
Min Temperature 52 °F 65 °F 50 °F (1971)
Degree Days  
Heating Degree Days 0 0  
Month to date heating degree days 4 0  
Since 1 June heating degree days 22 18  
Since 1 July heating degree days 4 0  
Cooling Degree Days 0 10  
Month to date cooling degree days 291 309  
Year to date cooling degree days 621 612  
Since 1 June cooling degree days 514 531  
Growing Degree Days 15 (Base 50)    
Moisture  
Dew Point 52 °F    
Average Humidity 65    
Maximum Humidity 89    
Minimum Humidity 40    
Precipitation  
Precipitation 0.00 in 0.12 in 1.20 in (1983)
Month to date precipitation 1.29 3.61  
Year to date precipitation 31.00 21.47  
Snow  
Snow 0.00 in 0.00 in 0.00 in ()
Month to date snowfall 0.0 0.0  
Since 1 June snowfall 0.0 0.0  
Since 1 July snowfall 0.0 0.0  
Snow Depth 0.00 in    
Sea Level Pressure  
Sea Level Pressure 30.13 in    
Wind  
Wind Speed 3 mph (WSW)    
Max Wind Speed 12 mph    
Max Gust Speed 14 mph    
Visibility 10 miles    
Events      
T = Trace of Precipitation, MM = Missing Value Source: NWS Daily Summary

Daily Weather History Graph

Daily Weather History Graph

Search for Another Location

Airport or City:

Trip Planner

Search our weather history database for the weather conditions in past years. The results will help you decide how hot, cold, wet, or windy it might be!

Date:

Astronomy

Jul. 29, 2013 Rise Set
Actual Time 5:52 AM CDT 8:16 PM CDT
Civil Twilight 5:21 AM CDT 8:47 PM CDT
Nautical Twilight 4:43 AM CDT 9:25 PM CDT
Astronomical Twilight 4:00 AM CDT 10:08 PM CDT
Moon No Moon Rise 1:37 PM CDT (7/29)
Length of Visible Light 15h 25m
Length of Day
14h 23m
Waning Gibbous, 50% of the Moon is Illuminated
Jul 29
Waning Gibbous
Jul 29
Last Quarter
Aug 6
New
Aug 14
First Quarter
Aug 20
Full

Hourly Weather History & Observations

Time (CDT) Temp. Dew Point Humidity Pressure Visibility Wind Dir Wind Speed Gust Speed Precip Events Conditions
12:54 AM 57.9 °F 53.1 °F 84% 30.07 in 10.0 mi Calm Calm - N/A   Mostly Cloudy
1:54 AM 55.9 °F 52.0 °F 87% 30.07 in 10.0 mi North 3.5 mph - N/A   Clear
2:54 AM 55.9 °F 51.1 °F 84% 30.08 in 10.0 mi Calm Calm - N/A   Partly Cloudy
3:54 AM 55.9 °F 51.1 °F 84% 30.09 in 10.0 mi NNW 3.5 mph - N/A   Clear
4:54 AM 55.0 °F 50.0 °F 83% 30.11 in 10.0 mi Calm Calm - N/A   Clear
5:54 AM 52.0 °F 48.9 °F 89% 30.12 in 10.0 mi Calm Calm - N/A   Clear
6:54 AM 55.0 °F 51.1 °F 86% 30.14 in 10.0 mi WSW 4.6 mph - N/A   Clear
7:06 AM 57.0 °F 52.0 °F 83% 30.14 in 10.0 mi Calm Calm - N/A   Partly Cloudy
7:08 AM 57.0 °F 53.1 °F 87% 30.14 in 10.0 mi Calm Calm - N/A   Clear
7:54 AM 61.0 °F 53.1 °F 75% 30.14 in 10.0 mi Calm Calm - N/A   Clear
8:54 AM 66.0 °F 53.1 °F 63% 30.16 in 10.0 mi Calm Calm - N/A   Clear
9:54 AM 70.0 °F 53.1 °F 55% 30.16 in 10.0 mi Variable 3.5 mph - N/A   Clear
10:54 AM 72.0 °F 50.0 °F 46% 30.17 in 10.0 mi West 5.8 mph - N/A   Clear
11:54 AM 73.9 °F 51.1 °F 45% 30.15 in 10.0 mi Calm Calm - N/A   Clear
12:54 PM 75.0 °F 51.1 °F 43% 30.15 in 10.0 mi North - - N/A   Clear
12:59 PM 75.9 °F 52.0 °F 43% 30.15 in 10.0 mi Calm Calm - N/A   Clear
1:54 PM 77.0 °F 51.1 °F 40% 30.14 in 10.0 mi Variable 6.9 mph - N/A   Clear
2:54 PM 75.9 °F 50.0 °F 40% 30.14 in 10.0 mi North - - N/A   Clear
3:54 PM 75.9 °F 53.1 °F 45% 30.15 in 10.0 mi SSW 10.4 mph - N/A   Partly Cloudy
4:54 PM 75.0 °F 51.1 °F 43% 30.14 in 10.0 mi SSW 5.8 mph - N/A   Clear
5:54 PM 75.9 °F 53.1 °F 45% 30.14 in 10.0 mi West 4.6 mph - N/A   Clear
6:54 PM 75.9 °F 51.1 °F 42% 30.13 in 10.0 mi Calm Calm - N/A   Clear
7:54 PM 71.1 °F 55.0 °F 57% 30.13 in 10.0 mi Calm Calm - N/A   Clear
8:54 PM 66.9 °F 55.9 °F 68% 30.14 in 10.0 mi Calm Calm - N/A   Clear
9:54 PM 69.1 °F 55.0 °F 61% 30.15 in 10.0 mi East 4.6 mph - N/A   Partly Cloudy
10:54 PM 66.9 °F 57.0 °F 70% 30.15 in 10.0 mi ENE 3.5 mph - N/A   Mostly Cloudy
11:54 PM 68.0 °F 55.9 °F 65% 30.15 in 10.0 mi ESE 3.5 mph - N/A   Mostly Cloudy